Voltar ao catálogo

FENGYUN 1C DEB

AtivoSSO
NORAD 30379·DEBRIS·🇨🇳 China

Lançado May 10, 1999 de Taiyuan Satellite Launch Center

Loading…

Próximas Passagens (próximas 24 horas)

TLE

AtualizadoSource: Space-Track

Época: Sep 14, 2026, 06:48 UTC

1 30379U 99025ACS 26257.28360250  .00000205  00000-0  14435-3 0  9992
2 30379  98.7499 268.7766 0035526 220.1090 204.5788 14.08282350  6886

Acompanhe FENGYUN 1C DEB em tempo real com AllMySat

Download on the App Store